Flag for Brazil Weather past 2 weeks in Porto Velho, Rondônia, Brazil

Now
75 °F

Scattered clouds.


Feels Like: 74 °F
Forecast: 73 / 88 °F
Wind: No wind

Location: Porto Velho Aeroporto

Current Time: May 27, 2015 at 8:40:31 AM

Latest Report: May 27, 2015 at 8:00 AM


Visibility: N/A

Pressure: 29.92 "Hg

Humidity: 94%

Dew point: 73 °F

Location of Porto VelhoLocation

Historic Weather in Porto Velho — Graph

°F

Porto Velho temperature yesterday

Maximum temperature yesterday: 90 °F (at 1:00 PM)
Minimum temperature yesterday: 73 °F (at 3:00 AM)
Average temperature yesterday: 79 °F

Past Weeks' High & Low Weather Summary

 TemperatureHumidityPressure
High91 °F (May 19, 2:00 PM)100% (May 13, 5:00 AM)30.01 "Hg (May 13, 5:00 AM)
Low72 °F (May 14, 6:00 AM)44% (May 19, 2:00 PM)29.77 "Hg (May 14, 4:00 PM)
Average79 °F82%29.90 "Hg
* Reported May 12 7:00 AM — May 27 7:00 AM, Porto Velho, Weather by CustomWeather, © 2015

Note: Actual official high and low records may vary slightly from our data, if they occured in-between our weather recording intervals... More about our weather records

Advertising

Porto Velho weather history for previous 24 hours

 ConditionsComfort  
Time TempWeatherWind HumidityBarometerVisibility
7:00 AM
Wed, May 27
73 °FScattered clouds.No wind94%29.89 "HgN/A
6:00 AM73 °FPassing clouds.No wind94%29.86 "HgN/A
5:00 AM73 °FPassing clouds.No wind94%29.86 "Hg5 mi
4:00 AM72 °FPassing clouds.No wind100%29.83 "HgN/A
3:00 AM72 °FPassing clouds.No wind100%29.83 "HgN/A
2:00 AM73 °FPassing clouds.No wind94%29.86 "HgN/A
1:00 AM73 °FPassing clouds.No wind94%29.86 "HgN/A
12:00 AM73 °FPassing clouds.2 mph94%29.89 "HgN/A
11:00 PM
Tue, May 26
73 °FPassing clouds.3 mph94%29.89 "HgN/A
10:00 PM75 °FPassing clouds.2 mph94%29.89 "HgN/A
9:00 PM75 °FPassing clouds.3 mph94%29.86 "HgN/A
8:00 PM79 °FPassing clouds.2 mph79%29.83 "HgN/A
7:00 PM81 °FPassing clouds.6 mph79%29.80 "HgN/A
6:00 PM84 °FPassing clouds.2 mph70%29.77 "HgN/A
5:00 PM88 °FPassing clouds.3 mph66%29.77 "HgN/A
4:00 PM86 °FScattered clouds.No wind70%29.80 "HgN/A
3:00 PM75 °FScattered showers. Scattered clouds.3 mph89%29.80 "HgN/A
2:00 PM90 °FScattered showers. Partly sunny.1 mph55%29.83 "HgN/A
1:00 PM90 °FPartly sunny.5 mph52%29.89 "HgN/A
12:00 PM88 °FPartly sunny.6 mph55%29.92 "HgN/A
11:00 AM88 °FScattered clouds.3 mph62%29.95 "HgN/A
10:00 AM84 °FPassing clouds.2 mph70%29.95 "HgN/A
9:00 AM81 °FPassing clouds.5 mph79%29.95 "HgN/A
8:00 AM77 °FPassing clouds.3 mph89%29.95 "HgN/A
Weather by CustomWeather, © 2015

See weather overviewHow to use our weather pages